Regional Weather Roundup
Issued by NWS

Home | Current Version | Previous Version | Text Only | Print | Product List | Glossary Off
Versions: 1 2 3 4 5 6 7 8 9 10 11 12 13 14 15 16 17 18 19 20 21 22 23 24 25 26 27 28 29 30 31 32 33 34 35 36 37 38 39 40 41 42 43 44 45 46 47 48 49 50

000
ASUS45 KCYS 210210
RWRWY

WYOMING REGIONAL WEATHER ROUNDUP
NATIONAL WEATHER SERVICE CHEYENNE WY
800 PM MDT WED AUG 20 2014

NOTE:  "FAIR" INDICATES FEW OR NO CLOUDS BELOW 12,000 FEET
WITH NO SIGNIFICANT WEATHER AND/OR OBSTRUCTIONS TO VISIBILITY.

WYZ001-210300-
YELLOWSTONE NATIONAL PARK

CITY           SKY/WX    TMP DP  RH WIND       PRES   REMARKS
LK YELLOWSTONE   N/A     45  43  93 CALM      30.19F
W YELLOWSTONE  NOT AVBL

$$
WYZ002>013-054>058-071-098>099-210300-
NORTHERN WYOMING

CITY           SKY/WX    TMP DP  RH WIND       PRES   REMARKS
JACKSON        CLOUDY    52  52 100 S9        30.13R
CODY           MOCLDY    70  45  40 S10       29.92R
GREYBULL       PTCLDY    78  41  26 N3        29.84R
WORLAND        CLOUDY    71  48  43 W12G22    29.87R
SHERIDAN       MOCLDY    67  49  52 W8        29.87S
BUFFALO        MOCLDY    69  44  40 NW6       29.94S
GILLETTE       PTCLDY    68  47  46 NW6       29.88R
HULETT         FAIR      72  50  46 MISG      29.89
NEWCASTLE      FAIR      77  43  29 N7        29.86

$$
WYZ014>020-022>026-101>103-210300-
CENTRAL WYOMING

CITY           SKY/WX    TMP DP  RH WIND       PRES   REMARKS
BIG PINEY      MOCLDY    55  42  61 N12       30.14R
PINEDALE       MOCLDY    54  43  66 NW13      30.16R
DUBOIS         MOCLDY    59  36  41 MISG      30.09R
LANDER         MOCLDY    66  46  48 W5        29.97R
RIVERTON       MOCLDY    70  41  34 SW6       29.97R
CASPER         CLOUDY    69  45  41 S20G30    29.95R
DOUGLAS        MOCLDY    77  41  27 W15       29.91R

$$
WYZ021-027>030-104>119-210300-
SOUTHERN WYOMING

CITY           SKY/WX    TMP DP  RH WIND       PRES   REMARKS
EVANSTON       PTCLDY    65  42  43 SW14      30.11R
KEMMERER       MOCLDY    61  46  59 NE10      30.12R
FORT BRIDGER   FAIR      63  48  59 S10       30.13R
ROCK SPRINGS   MOCLDY    60  43  53 SE3       30.10R
DIXON          CLOUDY    61  52  70 CALM      30.13R
RAWLINS        CLOUDY    60  48  64 W5        30.10S
SARATOGA       LGT RAIN  52  50  93 MISG      30.15R
LARAMIE        MOCLDY    63  45  51 W9        30.12R
CHEYENNE       MOCLDY    70  45  40 W9        30.02S
TORRINGTON     CLEAR     78  50  37 W7        29.86R
PINE BLUFFS    FAIR      68  48  49 CALM      29.96R

$$



USA.gov is the U.S. government's official web portal to all federal, state and local government web resources and services.